Weather History for West Vancouver, BC

Change the Weather History Date:

Sunday, January 6, 2013

  Actual Average Record
Temperature  
Mean Temperature 39 °F -  
Max Temperature 41 °F - - ()
Min Temperature 37 °F - - ()
Degree Days  
Heating Degree Days 26    
Moisture  
Dew Point 37 °F    
Average Humidity 90    
Maximum Humidity 94    
Minimum Humidity 83    
Precipitation  
Precipitation 0.39 in - - ()
Sea Level Pressure  
Sea Level Pressure 30.07 in    
Wind  
Wind Speed 3 mph ()    
Max Wind Speed 7 mph    
Max Gust Speed -    
T = Trace of Precipitation, MM = Missing Value Source: Averaged Metar Reports

Daily Weather History Graph

Daily Weather History Graph

Search for Another Location

Airport:

Trip Planner

Search our weather history database for the weather conditions in past years. The results will help you decide how hot, cold, wet, or windy it might be!

Date:

Astronomy

Jan. 06, 2013 Rise Set
Actual Time 8:07 AM PST 4:30 PM PST
Civil Twilight 7:30 AM PST 5:07 PM PST
Nautical Twilight 6:49 AM PST 5:48 PM PST
Astronomical Twilight 6:11 AM PST 6:26 PM PST
Moon 2:16 AM PST (1/6) 12:11 PM PST (1/6)
Length of Visible Light 9h 37m
Length of Day
8h 23m
Waning Crescent, 32% of the Moon is Illuminated
Jan 6
Waning Crescent
Jan 11
New
Jan 18
First Quarter
Jan 26
Full
Feb 3
Last Quarter

Hourly Weather History & Observations

Time (PST) Temp. Windchill Dew Point Humidity Pressure Visibility Wind Dir Wind Speed Gust Speed Precip Events Conditions
12:00 AM 40.5 °F 38.4 °F 38.1 °F 91% 30.07 in - ENE 3.5 mph - N/A   Unknown
1:00 AM 39.2 °F - 37.2 °F 93% 30.08 in - East 2.3 mph - N/A   Unknown
2:00 AM 40.1 °F 38.0 °F 36.7 °F 88% 30.09 in - East 3.5 mph - N/A   Unknown
3:00 AM 40.5 °F 37.3 °F 36.7 °F 86% 30.10 in - ENE 4.6 mph - N/A   Unknown
4:00 AM 40 °F - 37 °F 83% 30.09 in - East 3.5 mph - -  
4:00 AM 40.1 °F 38.0 °F 36.7 °F 88% 30.09 in - East 3.5 mph - N/A   Unknown
5:00 AM 39.6 °F - 36.9 °F 90% 30.09 in - NNE 2.3 mph - N/A   Unknown
6:00 AM 40.5 °F - 37.4 °F 89% 30.08 in - ENE 2.3 mph - N/A   Unknown
7:00 AM 40.1 °F - 37.0 °F 89% 30.10 in - Calm Calm - N/A   Unknown
8:00 AM 40.5 °F - 37.0 °F 88% 30.11 in - ENE 1.2 mph - N/A   Unknown
9:00 AM 40.3 °F - 38.3 °F 93% 30.11 in - ENE 1.2 mph - N/A   Unknown
10:00 AM 40.3 °F - 38.3 °F 93% 30.12 in - Calm Calm - N/A   Unknown
11:00 AM 40.5 °F - 37.6 °F 89% 30.12 in - East 1.2 mph - N/A   Unknown
12:00 PM 39.9 °F - 38.3 °F 94% 30.10 in - ENE 2.3 mph - 0.04 in   Unknown
1:00 PM 39.7 °F - 38.1 °F 94% 30.09 in - ENE 1.2 mph - 0.06 in   Unknown
2:00 PM 39.6 °F - 37.8 °F 93% 30.08 in - ENE 2.3 mph - 0.04 in   Unknown
3:00 PM 38.1 °F 34.6 °F 36.0 °F 92% 30.07 in - ENE 4.6 mph - 0.06 in   Unknown
4:00 PM 38 °F - 35 °F 87% 30.07 in - ENE 3.5 mph - -  
4:00 PM 37.8 °F 35.3 °F 35.4 °F 91% 30.07 in - ENE 3.5 mph - 0.06 in   Unknown
7:00 PM 37.9 °F 33.5 °F 35.2 °F 90% 30.03 in - ENE 5.8 mph - 0.09 in   Unknown
8:00 PM 37.8 °F 33.3 °F 35.2 °F 91% 30.02 in - ENE 5.8 mph - 0.07 in   Unknown
9:00 PM 37.9 °F 32.7 °F 35.1 °F 89% 30.00 in - ENE 6.9 mph - 0.07 in   Unknown
10:00 PM 38 °F - 35 °F 87% 29.99 in - East 6.9 mph - -  
10:00 PM 37.9 °F 32.7 °F 35.4 °F 91% 29.99 in - East 6.9 mph - 0.06 in   Unknown
11:00 PM 37.9 °F 32.7 °F 35.2 °F 90% 29.98 in - East 6.9 mph - 0.05 in   Unknown